Mt. Pocono, PA

2:02 PM EST on December 08, 2019 (GMT -0500)
Pocono Mountains Municipal

Weather History for KMPO - November, 2019

Change the Weather History Date:

Tuesday, November 12, 2019

  Actual Average Record
Temperature  
Mean Temperature 30 °F 40 °F  
Max Temperature 48 °F 48 °F 70 °F (1909)
Min Temperature 13 °F 33 °F 15 °F (1976)
Degree Days  
Heating Degree Days 34 25  
Month to date heating degree days 361 276  
Since 1 July heating degree days 971 1064  
Cooling Degree Days 0 0  
Month to date cooling degree days 0 0  
Year to date cooling degree days 348 314  
Moisture  
Dew Point 23 °F    
Average Humidity 85    
Maximum Humidity 100    
Minimum Humidity 59    
Precipitation  
Precipitation 0.08 in 0.13 in 1.34 in (1970)
Month to date precipitation 0.39 1.60  
Year to date precipitation 44.74 41.90  
Sea Level Pressure  
Sea Level Pressure 29.86 in    
Wind  
Wind Speed 14 mph ()    
Max Wind Speed 31 mph    
Max Gust Speed 40 mph    
Visibility 7.6 miles    
Events Rain , Snow    
T = Trace of Precipitation, MM = Missing Value Source: Averaged Metar Reports

Daily Weather History Graph

Daily Weather History Graph

Search for Another Location

Airport or City:

Astronomy

Nov. 12, 2019 Rise Set
Actual Time 6:45 AM EST 4:45 PM EST
Civil Twilight 6:16 AM EST 5:14 PM EST
Nautical Twilight 5:42 AM EST 5:47 PM EST
Astronomical Twilight 5:10 AM EST 6:20 PM EST
Moon 5:11 PM EST (11/12) 6:34 AM EST (11/12)
Length of Visible Light 10h 58m
Length of Day
9h 59m
Full, 100% of the Moon is Illuminated
Nov 12
Full
Nov 19
Last Quarter
Nov 26
New
Dec 4
First Quarter
Dec 12
Full

Hourly Weather History & Observations

Time (EST) Temp. Windchill Dew Point Humidity Pressure Visibility Wind Dir Wind Speed Gust Speed Precip Events Conditions
12:53 AM 46.9 °F - 41.0 °F 80% 29.72 in 10.0 mi South 6.9 mph - N/A   Clear
1:53 AM 46.9 °F - 41.0 °F 80% 29.71 in 10.0 mi South 10.4 mph - N/A   Scattered Clouds
2:53 AM 48.0 °F - 41.0 °F 77% 29.69 in 10.0 mi WSW 9.2 mph - 0.00 in   Overcast
3:53 AM 46.9 °F - 44.1 °F 90% 29.68 in 10.0 mi West 12.7 mph - 0.00 in Rain Light Rain
4:11 AM 46.0 °F 41.0 °F 44.1 °F 93% 29.67 in 10.0 mi West 10.4 mph 20.7 mph 0.01 in Rain Light Rain
4:15 AM 45.0 °F 38.5 °F 44.1 °F 97% 29.67 in 10.0 mi West 13.8 mph 20.7 mph 0.01 in Rain Light Rain
4:31 AM 42.1 °F 34.5 °F 41.0 °F 96% 29.68 in 8.0 mi West 15.0 mph - 0.01 in Rain Light Rain
4:53 AM 39.9 °F 32.5 °F 39.9 °F 100% 29.72 in 7.0 mi WNW 12.7 mph - 0.03 in Rain Light Rain
5:53 AM 32.0 °F 21.2 °F 30.9 °F 96% 29.76 in 9.0 mi WNW 16.1 mph 27.6 mph 0.03 in Rain Light Freezing Rain
6:04 AM 30.9 °F 18.7 °F 30.0 °F 96% 29.72 in 2.5 mi NW 19.6 mph 26.5 mph 0.01 in Rain Light Freezing Rain
6:08 AM 30.0 °F 17.9 °F 30.0 °F 100% 29.73 in 1.8 mi NW 18.4 mph 26.5 mph 0.01 in Snow Light Snow
6:19 AM 30.0 °F 17.9 °F 28.9 °F 96% 29.73 in 1.0 mi NW 18.4 mph - 0.02 in Snow Light Snow
6:38 AM 28.9 °F 17.7 °F 28.9 °F 100% 29.74 in 1.2 mi WNW 15.0 mph 21.9 mph 0.02 in Snow Light Snow
6:43 AM 28.0 °F 16.1 °F 28.0 °F 100% 29.74 in 2.0 mi WNW 16.1 mph 23.0 mph 0.02 in Snow Light Snow
6:53 AM 28.0 °F 15.7 °F 27.0 °F 96% 29.79 in 2.0 mi WNW 17.3 mph 27.6 mph 0.02 in Snow Light Snow
7:02 AM 28.0 °F 15.7 °F 26.1 °F 92% 29.76 in 1.5 mi WNW 17.3 mph 24.2 mph 0.00 in Snow Light Snow
7:27 AM 26.1 °F 11.3 °F 25.0 °F 96% 29.77 in 3.0 mi NW 23.0 mph 29.9 mph 0.00 in Snow Light Snow
7:32 AM 26.1 °F 11.3 °F 24.1 °F 92% 29.78 in 3.0 mi NW 23.0 mph 29.9 mph 0.00 in Snow Light Snow
7:45 AM 26.1 °F 14.5 °F 24.1 °F 92% 29.78 in 2.5 mi NW 13.8 mph 27.6 mph 0.00 in Snow Light Snow
7:50 AM 26.6 °F 15.2 °F 24.8 °F 93% 29.78 in 3.0 mi NW 13.8 mph - 0.00 in Snow Light Snow
7:53 AM 26.1 °F 14.5 °F 25.0 °F 96% 29.83 in 4.0 mi NW 13.8 mph - 0.00 in Snow Light Snow
8:03 AM 25.0 °F 11.7 °F 23.0 °F 92% 29.79 in 6.0 mi NW 17.3 mph 26.5 mph 0.00 in Snow Light Snow
8:53 AM 24.1 °F 7.7 °F 21.9 °F 91% 29.85 in 10.0 mi NW 26.5 mph 33.4 mph 0.00 in   Overcast
9:05 AM 23.0 °F 7.6 °F 21.9 °F 96% 29.80 in 10.0 mi NW 21.9 mph 33.4 mph N/A   Overcast
9:18 AM 23.0 °F 6.9 °F 19.9 °F 88% 29.80 in 10.0 mi NW 24.2 mph 34.5 mph N/A   Overcast
9:53 AM 23.0 °F 7.2 °F 19.9 °F 88% 29.87 in 10.0 mi WNW 23.0 mph 33.4 mph N/A   Overcast
10:53 AM 21.9 °F 6.2 °F 19.9 °F 92% 29.91 in 10.0 mi NW 21.9 mph 34.5 mph N/A   Overcast
11:50 AM 23.0 °F 6.3 °F 17.6 °F 80% 29.87 in 10.0 mi NW 26.5 mph 32.2 mph N/A   Overcast
11:53 AM 23.0 °F 8.7 °F 17.1 °F 78% 29.93 in 10.0 mi WNW 18.4 mph 32.2 mph N/A   Overcast
12:36 PM 21.9 °F 9.8 °F 19.0 °F 89% 29.89 in 9.0 mi NW 12.7 mph 21.9 mph 0.00 in Snow Light Snow
12:53 PM 21.9 °F 6.2 °F 18.0 °F 85% 29.94 in 10.0 mi NW 21.9 mph 27.6 mph 0.00 in   Overcast
1:53 PM 21.9 °F 7.3 °F 17.1 °F 82% 29.94 in 6.0 mi NW 18.4 mph 26.5 mph 0.00 in Snow Light Snow
2:53 PM 23.0 °F 8.3 °F 17.1 °F 78% 29.95 in 10.0 mi NW 19.6 mph 31.1 mph 0.00 in   Overcast
3:39 PM 21.9 °F 6.2 °F 15.1 °F 75% 29.92 in 10.0 mi NW 21.9 mph 29.9 mph 0.00 in   Overcast
4:40 PM 21.0 °F 9.3 °F 15.1 °F 78% 29.93 in 10.0 mi WNW 11.5 mph 26.5 mph 0.00 in   Overcast
4:53 PM 21.0 °F 3.6 °F 12.0 °F 68% 30.01 in 10.0 mi NW 26.5 mph 33.4 mph 0.00 in   Mostly Cloudy
5:03 PM 19.9 °F 4.8 °F 12.0 °F 71% 29.95 in 10.0 mi NW 18.4 mph 34.5 mph N/A   Scattered Clouds
5:53 PM 19.0 °F 2.7 °F 10.9 °F 71% 30.05 in 10.0 mi NW 20.7 mph 29.9 mph N/A   Partly Cloudy
6:53 PM 17.1 °F 0.1 °F 8.1 °F 68% 30.10 in 10.0 mi WNW 20.7 mph 25.3 mph N/A   Clear
7:53 PM 16.0 °F 0.1 °F 7.0 °F 68% 30.12 in 10.0 mi NW 17.3 mph 21.9 mph N/A   Clear
8:53 PM 15.1 °F -0.1 °F 3.0 °F 59% 30.14 in 10.0 mi WNW 15.0 mph - N/A   Clear
9:53 PM 14.0 °F -0.2 °F 3.9 °F 64% 30.16 in 10.0 mi WNW 12.7 mph 24.2 mph N/A   Clear
10:53 PM 14.0 °F -2.0 °F 5.0 °F 67% 30.15 in 10.0 mi WNW 16.1 mph 24.2 mph N/A   Clear
11:53 PM 14.0 °F -2.0 °F 3.0 °F 62% 30.15 in 10.0 mi WNW 16.1 mph 28.8 mph N/A   Clear